[TLELIST] Archives

 

[TLELIST] Current TLEs

January 6th 2025 PDT

HST 1 20580U 90037B 25005.43854934 .00012153 00000-0 50476-3 0 9993 2 20580 28.4688 65.7456 0002772 99.3748 260.7159 15.22236828708097 ISS (ZARYA) 1 25544U 98067A 25006.50873924 .00021750 00000-0 37660-3 0 9991 2 25544 51.6398 27.9505 0006393 51.7303 85.5734 15.50832392490083 CXO 1 25867U 99040B 25008.13348319 .00000484 00000-0 00000+0 0 9992 2 25867 45.8853 138.2913 8655281 305.9584 1.3815 0.37808787 26496 ...Continue Reading

[TLELIST] Current TLEs

January 6th 2025 PDT

HST 1 20580U 90037B 25005.43854934 .00012153 00000-0 50476-3 0 9993 2 20580 28.4688 65.7456 0002772 99.3748 260.7159 15.22236828708097 ISS (ZARYA) 1 25544U 98067A 25006.50873924 .00021750 00000-0 37660-3 0 9991 2 25544 51.6398 27.9505 0006393 51.7303 85.5734 15.50832392490083 CXO 1 25867U 99040B 25008.13348319 .00000484 00000-0 00000+0 0 9992 2 25867 45.8853 138.2913 8655281 305.9584 1.3815 0.37808787 26496 ...Continue Reading

[TLELIST] Current TLEs

January 5th 2025 PDT

HST 1 20580U 90037B 25004.84849472 .00012167 00000-0 50557-3 0 9993 2 20580 28.4687 69.7258 0002788 93.6067 266.4846 15.22221776707741 ISS (ZARYA) 1 25544U 98067A 25005.21659662 .00022613 00000-0 39198-3 0 9996 2 25544 51.6390 34.3594 0006245 46.9928 71.6484 15.50776974489887 CXO 1 25867U 99040B 25005.48161696 .00000610 00000-0 00000+0 0 9999 2 25867 45.7878 138.5273 8656211 305.8213 0.4036 0.37805792 26483 ...Continue Reading

[TLELIST] Current TLEs

January 4th 2025 PDT

HST 1 20580U 90037B 25003.86505663 .00009987 00000-0 41386-3 0 9991 2 20580 28.4687 76.3606 0002757 84.8686 275.2222 15.22196173707598 ISS (ZARYA) 1 25544U 98067A 25004.00595347 .00025742 00000-0 44575-3 0 9992 2 25544 51.6402 40.3677 0006188 42.3179 153.2056 15.50725948489690 CXO 1 25867U 99040B 25005.48161696 .00000610 00000-0 00000+0 0 9999 2 25867 45.7878 138.5273 8656211 305.8213 0.4036 0.37805792 26483 ...Continue Reading

[TLELIST] Current TLEs

January 3rd 2025 PDT

HST 1 20580U 90037B 25002.88160328 .00013889 00000-0 57902-3 0 9994 2 20580 28.4687 82.9944 0002675 74.3722 285.7167 15.22174969707447 ISS (ZARYA) 1 25544U 98067A 25003.35940972 .00023404 00000-0 40658-3 0 9998 2 25544 51.6394 43.5721 0006223 40.5974 143.1760 15.50692603489598 CXO 1 25867U 99040B 25005.48161696 .00000610 00000-0 00000+0 0 9999 2 25867 45.7878 138.5273 8656211 305.8213 0.4036 0.37805792 26483 ...Continue Reading

[TLELIST] Current TLEs

January 2nd 2025 PDT

HST 1 20580U 90037B 25001.57030551 .00017492 00000-0 73207-3 0 9993 2 20580 28.4689 91.8396 0002660 62.7061 297.3803 15.22132261707243 ISS (ZARYA) 1 25544U 98067A 25002.23095720 .00034139 00000-0 58981-3 0 9991 2 25544 51.6378 49.1720 0006118 33.9345 326.2034 15.50638329489427 CXO 1 25867U 99040B 25005.48161696 .00000610 00000-0 00000+0 0 9999 2 25867 45.7878 138.5273 8656211 305.8213 0.4036 0.37805792 26483 ...Continue Reading

[TLELIST] Current TLEs

January 2nd 2025 PDT

HST 1 20580U 90037B 25001.57030551 .00017492 00000-0 73207-3 0 9993 2 20580 28.4689 91.8396 0002660 62.7061 297.3803 15.22132261707243 ISS (ZARYA) 1 25544U 98067A 25002.23095720 .00034139 00000-0 58981-3 0 9991 2 25544 51.6378 49.1720 0006118 33.9345 326.2034 15.50638329489427 CXO 1 25867U 99040B 25005.48161696 .00000610 00000-0 00000+0 0 9999 2 25867 45.7878 138.5273 8656211 305.8213 0.4036 0.37805792 26483 ...Continue Reading

[TLELIST] Current TLEs

January 1st 2025 PDT

HST 1 20580U 90037B 24366.58680556 .00013928 00000-0 58199-3 0 9996 2 20580 28.4687 98.4724 0002679 55.1645 304.9200 15.22099524707096 ISS (ZARYA) 1 25544U 98067A 24366.81307813 .00027763 00000-0 48311-3 0 9997 2 25544 51.6382 56.2039 0006091 28.0496 332.0820 15.50544003489205 CXO 1 25867U 99040B 25002.83766059 .00000687 00000-0 00000-0 0 9994 2 25867 45.7235 138.6980 8657244 305.7522 0.4087 0.37800605 15319 ...Continue Reading

[TLELIST] Current TLEs

January 1st 2025 PDT

HST 1 20580U 90037B 24366.58680556 .00013928 00000-0 58199-3 0 9996 2 20580 28.4687 98.4724 0002679 55.1645 304.9200 15.22099524707096 ISS (ZARYA) 1 25544U 98067A 24366.81307813 .00027763 00000-0 48311-3 0 9997 2 25544 51.6382 56.2039 0006091 28.0496 332.0820 15.50544003489205 CXO 1 25867U 99040B 25002.83766059 .00000687 00000-0 00000-0 0 9994 2 25867 45.7235 138.6980 8657244 305.7522 0.4087 0.37800605 15319 ...Continue Reading

[TLELIST] Current TLEs

December 31st 2024 PDT

HST 1 20580U 90037B 24365.60328680 .00014464 00000-0 60514-3 0 9995 2 20580 28.4686 105.1058 0002610 45.3840 314.6966 15.22073435706947 ISS (ZARYA) 1 25544U 98067A 24366.44037236 .00026433 00000-0 46080-3 0 9999 2 25544 51.6401 58.0461 0005884 28.2226 50.1244 15.50522660489144 CXO 1 25867U 99040B 25002.83766059 .00000687 00000-0 00000+0 0 9993 2 25867 45.7235 138.6980 8657244 305.7522 0.4087 0.37800605 26478 ...Continue Reading
  • This mailing list is a public mailing list - anyone may join or leave, at any time.
  • This mailing list is announce-only.

International Space Station (ISS) / Hubble Space Telescope (HST) / Chandra X-Ray Observatory Orbital Data via EMAIL

Privacy Policy:

Private list